,,Stat6,,Stat2,,Stat8,,Stat9,,Stat10,,Wind1,,Wind1,
time,status,PA1M_AVG,status,PR1M_SUM,status,RH1M_AVG,status,SR1M_AVG,status,TA1M_AVG,status,W1dAve1m,status,W1sAve1m,
2009-07-03, 00:00:00,VALID,918.286,VALID,0,VALID,100,VALID,0.0339617,VALID,17.3217,VALID,142,VALID,0.0093006,
2009-07-03, 00:01:00,VALID,918.277,VALID,0,VALID,100,VALID,0.0509425,VALID,17.3119,VALID,136,VALID,0,
2009-07-03, 00:02:00,VALID,918.271,VALID,0,VALID,100,VALID,0.0339617,VALID,17.3214,VALID,137,VALID,0.146723,
2009-07-03, 00:03:00,VALID,918.262,VALID,0,VALID,100,VALID,0.0339617,VALID,17.3575,VALID,136,VALID,0.00260417,
2009-07-03, 00:04:00,VALID,918.268,VALID,0,VALID,100,VALID,0,VALID,17.3638,VALID,139,VALID,0.000347222,
2009-07-03, 00:05:00,VALID,918.275,VALID,0,VALID,100,VALID,0.0169808,VALID,17.3673,VALID,147,VALID,0.000952744,
2009-07-03, 00:06:00,VALID,918.269,VALID,0,VALID,99.9626,VALID,0.0509425,VALID,17.3703,VALID,137,VALID,0,
2009-07-03, 00:07:00,VALID,918.265,VALID,0,VALID,99.8795,VALID,0.0339617,VALID,17.3539,VALID,151,VALID,0.000887784,
2009-07-03, 00:08:00,VALID,918.262,VALID,0,VALID,99.7981,VALID,0.0169808,VALID,17.3673,VALID,149,VALID,0.0276042,
2009-07-03, 00:09:00,VALID,918.251,VALID,0,VALID,99.7345,VALID,0.0339617,VALID,17.3738,VALID,151,VALID,0.0132631,
2009-07-03, 00:10:00,VALID,918.247,VALID,0,VALID,99.7078,VALID,0.0849042,VALID,17.3865,VALID,144,VALID,0.0289634,
2009-07-03, 00:11:00,VALID,918.218,VALID,0,VALID,99.5832,VALID,0.0339617,VALID,17.4187,VALID,140,VALID,0,
2009-07-03, 00:12:00,VALID,918.223,VALID,0,VALID,99.4992,VALID,-0.0849042,VALID,17.4721,VALID,139,VALID,0.0445131,
2009-07-03, 00:13:00,VALID,918.202,VALID,0,VALID,99.306,VALID,-0.0849042,VALID,17.5046,VALID,135,VALID,0.0500372,
2009-07-03, 00:14:00,VALID,918.194,VALID,0,VALID,99.0605,VALID,-0.0679233,VALID,17.5115,VALID,135,VALID,0,
2009-07-03, 00:15:00,VALID,918.189,VALID,0,VALID,99.0109,VALID,-0.0339617,VALID,17.5173,VALID,139,VALID,0,
2009-07-03, 00:16:00,VALID,918.176,VALID,0,VALID,99.0059,VALID,-0.101885,VALID,17.5439,VALID,143,VALID,0,
2009-07-03, 00:17:00,VALID,918.176,VALID,0,VALID,98.9525,VALID,-0.0679233,VALID,17.5634,VALID,139,VALID,0,
2009-07-03, 00:18:00,VALID,918.175,VALID,0,VALID,98.9245,VALID,-0.101885,VALID,17.5729,VALID,133,VALID,0,
2009-07-03, 00:19:00,VALID,918.179,VALID,0,VALID,98.8723,VALID,-0.0509425,VALID,17.5956,VALID,139,VALID,0.0862847,
2009-07-03, 00:20:00,VALID,918.173,VALID,0,VALID,98.6752,VALID,-0.101885,VALID,17.612,VALID,140,VALID,0.118096,
2009-07-03, 00:21:00,VALID,918.167,VALID,0,VALID,98.5048,VALID,-0.118866,VALID,17.6349,VALID,132,VALID,0,
2009-07-03, 00:22:00,VALID,918.173,VALID,0,VALID,98.3306,VALID,-0.0849042,VALID,17.634,VALID,135,VALID,0.0485899,
2009-07-03, 00:23:00,VALID,918.181,VALID,0,VALID,98.178,VALID,-0.0509425,VALID,17.6635,VALID,138,VALID,0.0796494,
2009-07-03, 00:24:00,VALID,918.184,VALID,0,VALID,98.0089,VALID,-0.0509425,VALID,17.6957,VALID,137,VALID,0.00745739,
2009-07-03, 00:25:00,VALID,918.184,VALID,0,VALID,97.761,VALID,-0.101885,VALID,17.7091,VALID,132,VALID,0.169643,
2009-07-03, 00:26:00,VALID,918.197,VALID,0,VALID,97.6173,VALID,-0.101885,VALID,17.6926,VALID,129,VALID,0.174805,
2009-07-03, 00:27:00,VALID,918.184,VALID,0,VALID,97.4647,VALID,-0.0679233,VALID,17.6924,VALID,129,VALID,0.315625,
2009-07-03, 00:28:00,VALID,918.193,VALID,0,VALID,97.2917,VALID,-0.0509425,VALID,17.6732,VALID,127,VALID,0.184482,
2009-07-03, 00:29:00,VALID,918.195,VALID,0,VALID,97.2714,VALID,-0.101885,VALID,17.657,VALID,130,VALID,0.281977,
2009-07-03, 00:30:00,VALID,918.18,VALID,0,VALID,97.3134,VALID,-0.0339617,VALID,17.6505,VALID,133,VALID,0,
2009-07-03, 00:31:00,VALID,918.165,VALID,0,VALID,97.2688,VALID,-0.0679233,VALID,17.644,VALID,134,VALID,0,
2009-07-03, 00:32:00,VALID,918.157,VALID,0,VALID,97.293,VALID,-0.0849042,VALID,17.6345,VALID,127,VALID,0.0316051,
2009-07-03, 00:33:00,VALID,918.138,VALID,0,VALID,97.3858,VALID,-0.118866,VALID,17.6252,VALID,127,VALID,0.205793,
2009-07-03, 00:34:00,VALID,918.129,VALID,0,VALID,97.3057,VALID,-0.0679233,VALID,17.5956,VALID,127,VALID,0.00669643,
2009-07-03, 00:35:00,VALID,918.124,VALID,0,VALID,97.3706,VALID,-0.0849042,VALID,17.5625,VALID,124,VALID,0,
2009-07-03, 00:36:00,VALID,918.102,VALID,0,VALID,97.4532,VALID,-0.101885,VALID,17.5437,VALID,131,VALID,0,
2009-07-03, 00:37:00,VALID,918.071,VALID,0,VALID,97.5219,VALID,-0.0849042,VALID,17.5309,VALID,131,VALID,0,
2009-07-03, 00:38:00,VALID,918.036,VALID,0,VALID,97.6198,VALID,-0.101885,VALID,17.4851,VALID,132,VALID,0,
2009-07-03, 00:39:00,VALID,918.007,VALID,0,VALID,97.7076,VALID,-0.101885,VALID,17.4689,VALID,134,VALID,0,
2009-07-03, 00:40:00,VALID,917.963,VALID,0,VALID,97.7711,VALID,-0.0679233,VALID,17.4626,VALID,138,VALID,0,
2009-07-03, 00:41:00,VALID,917.925,VALID,0,VALID,97.766,VALID,-0.101885,VALID,17.4691,VALID,132,VALID,0.247456,
2009-07-03, 00:42:00,VALID,917.891,VALID,0,VALID,97.7826,VALID,0.0169808,VALID,17.4937,VALID,129,VALID,0.193359,
2009-07-03, 00:43:00,VALID,917.859,VALID,0,VALID,97.5855,VALID,0,VALID,17.5192,VALID,134,VALID,0.000952744,
2009-07-03, 00:44:00,VALID,917.841,VALID,0,VALID,97.4469,VALID,0.0169808,VALID,17.5553,VALID,138,VALID,0,
2009-07-03, 00:45:00,VALID,917.831,VALID,0,VALID,97.3299,VALID,0.0339617,VALID,17.5813,VALID,145,VALID,0.00106534,
2009-07-03, 00:46:00,VALID,917.826,VALID,0,VALID,97.1366,VALID,0,VALID,17.5942,VALID,140,VALID,0,
2009-07-03, 00:47:00,VALID,917.832,VALID,0,VALID,97.0717,VALID,0,VALID,17.5847,VALID,144,VALID,0,
2009-07-03, 00:48:00,VALID,917.827,VALID,0,VALID,97.0832,VALID,0,VALID,17.5748,VALID,146,VALID,0,
2009-07-03, 00:49:00,VALID,917.807,VALID,0,VALID,97.2193,VALID,0.0509425,VALID,17.5646,VALID,138,VALID,0,
2009-07-03, 00:50:00,VALID,917.801,VALID,0,VALID,97.3146,VALID,0.0339617,VALID,17.5713,VALID,138,VALID,0,
2009-07-03, 00:51:00,VALID,917.791,VALID,0,VALID,97.3973,VALID,0.0339617,VALID,17.5746,VALID,131,VALID,0,
2009-07-03, 00:52:00,VALID,917.763,VALID,0,VALID,97.3947,VALID,0.0169808,VALID,17.578,VALID,125,VALID,0,
2009-07-03, 00:53:00,VALID,917.756,VALID,0,VALID,97.7343,VALID,-0.0169808,VALID,17.604,VALID,124,VALID,0,
2009-07-03, 00:54:00,VALID,917.745,VALID,0,VALID,97.6173,VALID,0.0169808,VALID,17.6686,VALID,122,VALID,0.0565476,
2009-07-03, 00:55:00,VALID,917.736,VALID,0,VALID,97.4164,VALID,0,VALID,17.701,VALID,120,VALID,0.00976563,
2009-07-03, 00:56:00,VALID,917.713,VALID,0,VALID,97.2879,VALID,0,VALID,17.7239,VALID,115,VALID,0,
2009-07-03, 00:57:00,VALID,917.705,VALID,0,VALID,97.0794,VALID,0.0169808,VALID,17.7369,VALID,128,VALID,0,
2009-07-03, 00:58:00,VALID,917.695,VALID,0,VALID,96.9242,VALID,0.0339617,VALID,17.7272,VALID,142,VALID,0.112723,
2009-07-03, 00:59:00,VALID,917.684,VALID,0,VALID,96.8581,VALID,-0.0169808,VALID,17.711,VALID,147,VALID,0.0603198,
2009-07-03, 01:00:00,VALID,917.668,VALID,0,VALID,96.7793,VALID,0,VALID,17.6853,VALID,149,VALID,0.0541295,
2009-07-03, 01:01:00,VALID,917.66,VALID,0,VALID,96.8378,VALID,0,VALID,17.6558,VALID,139,VALID,0.046875,
2009-07-03, 01:02:00,VALID,917.641,VALID,0,VALID,97.0323,VALID,0,VALID,17.6202,VALID,136,VALID,0,
2009-07-03, 01:03:00,VALID,917.622,VALID,0,VALID,97.2396,VALID,0.0169808,VALID,17.5653,VALID,138,VALID,0,
2009-07-03, 01:04:00,VALID,917.62,VALID,0,VALID,97.5015,VALID,-0.0169808,VALID,17.5359,VALID,139,VALID,0,
2009-07-03, 01:05:00,VALID,917.61,VALID,0,VALID,97.6783,VALID,0,VALID,17.4939,VALID,138,VALID,0,
2009-07-03, 01:06:00,VALID,917.602,VALID,0,VALID,97.8716,VALID,0.0339617,VALID,17.471,VALID,145,VALID,0,
2009-07-03, 01:07:00,VALID,917.565,VALID,0,VALID,97.9212,VALID,0,VALID,17.4548,VALID,136,VALID,0,
2009-07-03, 01:08:00,VALID,917.576,VALID,0,VALID,98.1374,VALID,0,VALID,17.4382,VALID,130,VALID,0,
2009-07-03, 01:09:00,VALID,917.556,VALID,0,VALID,98.3179,VALID,0.0169808,VALID,17.455,VALID,129,VALID,0,
2009-07-03, 01:10:00,VALID,917.556,VALID,0,VALID,98.1844,VALID,0.0169808,VALID,17.4613,VALID,134,VALID,0,
2009-07-03, 01:11:00,VALID,917.547,VALID,0,VALID,98.0712,VALID,0.0169808,VALID,17.4418,VALID,134,VALID,0.0819404,
2009-07-03, 01:12:00,VALID,917.545,VALID,0,VALID,98.0369,VALID,-0.101885,VALID,17.4367,VALID,142,VALID,0.181686,
2009-07-03, 01:13:00,VALID,917.535,VALID,0,VALID,98.0992,VALID,-0.135847,VALID,17.4332,VALID,149,VALID,0.103423,
2009-07-03, 01:14:00,VALID,917.54,VALID,0,VALID,98.0623,VALID,-0.0849042,VALID,17.4399,VALID,141,VALID,0.414063,
2009-07-03, 01:15:00,VALID,917.54,VALID,0,VALID,98.0611,VALID,-0.118866,VALID,17.4298,VALID,145,VALID,0.185902,
2009-07-03, 01:16:00,VALID,917.537,VALID,0,VALID,98.0712,VALID,-0.152827,VALID,17.4233,VALID,139,VALID,0.341388,
2009-07-03, 01:17:00,VALID,917.507,VALID,0,VALID,98.2658,VALID,-0.0849042,VALID,17.4626,VALID,135,VALID,0.0710565,
2009-07-03, 01:18:00,VALID,917.489,VALID,0,VALID,98.2264,VALID,-0.101885,VALID,17.4816,VALID,121,VALID,0,
2009-07-03, 01:19:00,VALID,917.49,VALID,0,VALID,98.0496,VALID,-0.101885,VALID,17.4946,VALID,120,VALID,0,
2009-07-03, 01:20:00,VALID,917.481,VALID,0,VALID,98.0941,VALID,-0.101885,VALID,17.4821,VALID,120,VALID,0,
2009-07-03, 01:21:00,VALID,917.457,VALID,0,VALID,98.1157,VALID,-0.101885,VALID,17.4724,VALID,127,VALID,0,
2009-07-03, 01:22:00,VALID,917.454,VALID,0,VALID,98.1475,VALID,-0.101885,VALID,17.4652,VALID,135,VALID,0,
2009-07-03, 01:23:00,VALID,917.428,VALID,0,VALID,98.0738,VALID,-0.0679233,VALID,17.4654,VALID,132,VALID,0,
2009-07-03, 01:24:00,VALID,917.413,VALID,0,VALID,98.1017,VALID,-0.0849042,VALID,17.4365,VALID,139,VALID,0,
2009-07-03, 01:25:00,VALID,917.382,VALID,0,VALID,98.2899,VALID,-0.118866,VALID,17.42,VALID,141,VALID,0,
2009-07-03, 01:26:00,VALID,917.349,VALID,0,VALID,98.4222,VALID,-0.0509425,VALID,17.4235,VALID,137,VALID,0,
2009-07-03, 01:27:00,VALID,917.336,VALID,0,VALID,98.5265,VALID,-0.0849042,VALID,17.4429,VALID,144,VALID,0,
2009-07-03, 01:28:00,VALID,917.318,VALID,0,VALID,98.4451,VALID,-0.0679233,VALID,17.4133,VALID,139,VALID,0,
2009-07-03, 01:29:00,VALID,917.32,VALID,0,VALID,98.59,VALID,-0.0679233,VALID,17.4231,VALID,132,VALID,0,
2009-07-03, 01:30:00,VALID,917.316,VALID,0,VALID,98.5341,VALID,-0.0849042,VALID,17.414,VALID,135,VALID,0,
2009-07-03, 01:31:00,VALID,917.323,VALID,0,VALID,98.5926,VALID,-0.0509425,VALID,17.3846,VALID,136,VALID,0,
2009-07-03, 01:32:00,VALID,917.336,VALID,0,VALID,98.6587,VALID,-0.101885,VALID,17.3816,VALID,145,VALID,0,
2009-07-03, 01:33:00,VALID,917.349,VALID,0,VALID,98.8177,VALID,-0.101885,VALID,17.3945,VALID,144,VALID,0,
2009-07-03, 01:34:00,VALID,917.361,VALID,0,VALID,98.8711,VALID,-0.118866,VALID,17.4207,VALID,136,VALID,0.0948933,
2009-07-03, 01:35:00,VALID,917.363,VALID,0,VALID,98.8571,VALID,-0.0679233,VALID,17.4429,VALID,139,VALID,0.0443314,
2009-07-03, 01:36:00,VALID,917.361,VALID,0,VALID,98.7287,VALID,-0.0849042,VALID,17.4393,VALID,134,VALID,0.0774456,
2009-07-03, 01:37:00,VALID,917.36,VALID,0,VALID,98.7706,VALID,-0.0679233,VALID,17.436,VALID,129,VALID,0.00572917,
2009-07-03, 01:38:00,VALID,917.361,VALID,0,VALID,98.6943,VALID,-0.0849042,VALID,17.4395,VALID,113,VALID,0,
2009-07-03, 01:39:00,VALID,917.369,VALID,0,VALID,98.585,VALID,-0.0679233,VALID,17.3941,VALID,110,VALID,0,
2009-07-03, 01:40:00,VALID,917.364,VALID,0,VALID,98.6803,VALID,-0.101885,VALID,17.3718,VALID,113,VALID,0,
2009-07-03, 01:41:00,VALID,917.348,VALID,0,VALID,99.0529,VALID,-0.101885,VALID,17.4071,VALID,122,VALID,0,
2009-07-03, 01:42:00,VALID,917.335,VALID,0,VALID,98.9525,VALID,-0.0849042,VALID,17.4423,VALID,128,VALID,0.0383681,
2009-07-03, 01:43:00,VALID,917.327,VALID,0,VALID,98.7248,VALID,-0.0849042,VALID,17.4983,VALID,129,VALID,0,
2009-07-03, 01:44:00,VALID,917.328,VALID,0,VALID,98.4324,VALID,-0.0679233,VALID,17.508,VALID,125,VALID,0,
2009-07-03, 01:45:00,VALID,917.325,VALID,0,VALID,98.3065,VALID,-0.0169808,VALID,17.4749,VALID,117,VALID,0.221037,
2009-07-03, 01:46:00,VALID,917.336,VALID,0,VALID,98.2162,VALID,-0.101885,VALID,17.4624,VALID,118,VALID,0.00552591,
2009-07-03, 01:47:00,VALID,917.318,VALID,0,VALID,98.2594,VALID,-0.101885,VALID,17.4334,VALID,122,VALID,0.0952744,
2009-07-03, 01:48:00,VALID,917.315,VALID,0,VALID,98.2391,VALID,-0.0679233,VALID,17.4006,VALID,135,VALID,0.0112424,
2009-07-03, 01:49:00,VALID,917.322,VALID,0,VALID,98.3281,VALID,-0.0849042,VALID,17.3811,VALID,150,VALID,0.0536222,
2009-07-03, 01:50:00,VALID,917.321,VALID,0,VALID,98.6091,VALID,-0.0849042,VALID,17.3878,VALID,158,VALID,0,
2009-07-03, 01:51:00,VALID,917.325,VALID,0,VALID,98.8278,VALID,-0.101885,VALID,17.4429,VALID,154,VALID,0,
2009-07-03, 01:52:00,VALID,917.321,VALID,0,VALID,98.6307,VALID,-0.0679233,VALID,17.4626,VALID,147,VALID,0,
2009-07-03, 01:53:00,VALID,917.311,VALID,0,VALID,98.3879,VALID,-0.0849042,VALID,17.4334,VALID,142,VALID,0,
2009-07-03, 01:54:00,VALID,917.296,VALID,0,VALID,98.3459,VALID,-0.0679233,VALID,17.3876,VALID,142,VALID,0,
2009-07-03, 01:55:00,VALID,917.284,VALID,0,VALID,98.5773,VALID,-0.118866,VALID,17.3519,VALID,142,VALID,0,
2009-07-03, 01:56:00,VALID,917.273,VALID,0,VALID,98.8049,VALID,-0.0849042,VALID,17.3426,VALID,144,VALID,0,
2009-07-03, 01:57:00,VALID,917.266,VALID,0,VALID,99.0402,VALID,0.0169808,VALID,17.3476,VALID,145,VALID,0,
2009-07-03, 01:58:00,VALID,917.266,VALID,0,VALID,99.0605,VALID,0.0169808,VALID,17.3738,VALID,145,VALID,0,
2009-07-03, 01:59:00,VALID,917.263,VALID,0,VALID,98.9486,VALID,-0.0169808,VALID,17.3668,VALID,144,VALID,0.0699314,
2009-07-03, 02:00:00,VALID,917.278,VALID,0,VALID,98.8024,VALID,0,VALID,17.3671,VALID,146,VALID,0.342262,
2009-07-03, 02:01:00,VALID,917.269,VALID,0,VALID,98.7197,VALID,0,VALID,17.3601,VALID,145,VALID,0,
2009-07-03, 02:02:00,VALID,917.268,VALID,0,VALID,98.6117,VALID,0,VALID,17.3733,VALID,155,VALID,0,
2009-07-03, 02:03:00,VALID,917.273,VALID,0,VALID,98.4845,VALID,0,VALID,17.4191,VALID,159,VALID,0,
2009-07-03, 02:04:00,VALID,917.269,VALID,0,VALID,98.2187,VALID,0,VALID,17.4449,VALID,157,VALID,0,
2009-07-03, 02:05:00,VALID,917.254,VALID,0,VALID,97.8538,VALID,0.0169808,VALID,17.4544,VALID,149,VALID,0,
2009-07-03, 02:06:00,VALID,917.25,VALID,0,VALID,97.6147,VALID,-0.0169808,VALID,17.4416,VALID,143,VALID,0,
2009-07-03, 02:07:00,VALID,917.245,VALID,0,VALID,97.5537,VALID,-0.0169808,VALID,17.4317,VALID,144,VALID,0,
2009-07-03, 02:08:00,VALID,917.249,VALID,0,VALID,97.466,VALID,0,VALID,17.4189,VALID,147,VALID,0,
2009-07-03, 02:09:00,VALID,917.242,VALID,0,VALID,97.3998,VALID,0.0339617,VALID,17.3958,VALID,146,VALID,0,
2009-07-03, 02:10:00,VALID,917.236,VALID,0,VALID,97.452,VALID,0.0339617,VALID,17.3798,VALID,133,VALID,0,
2009-07-03, 02:11:00,VALID,917.229,VALID,0,VALID,97.3846,VALID,0.0339617,VALID,17.3638,VALID,137,VALID,0,
2009-07-03, 02:12:00,VALID,917.214,VALID,0,VALID,97.4469,VALID,0.0169808,VALID,17.3175,VALID,138,VALID,0,
2009-07-03, 02:13:00,VALID,917.201,VALID,0,VALID,97.4901,VALID,0.0169808,VALID,17.299,VALID,143,VALID,0,
2009-07-03, 02:14:00,VALID,917.198,VALID,0,VALID,97.6249,VALID,0.0169808,VALID,17.2559,VALID,145,VALID,0,
2009-07-03, 02:15:00,VALID,917.177,VALID,0,VALID,97.7292,VALID,0,VALID,17.2469,VALID,148,VALID,0.0922619,
2009-07-03, 02:16:00,VALID,917.165,VALID,0,VALID,97.8373,VALID,0,VALID,17.2473,VALID,144,VALID,0.00292969,
2009-07-03, 02:17:00,VALID,917.149,VALID,0,VALID,97.9593,VALID,0,VALID,17.2369,VALID,139,VALID,0.000186012,
2009-07-03, 02:18:00,VALID,917.147,VALID,0,VALID,98.0496,VALID,0.0169808,VALID,17.2601,VALID,140,VALID,0.162287,
2009-07-03, 02:19:00,VALID,917.118,VALID,0,VALID,98.042,VALID,0.0339617,VALID,17.2754,VALID,141,VALID,0.286719,
2009-07-03, 02:20:00,VALID,917.11,VALID,0,VALID,97.9148,VALID,0.0339617,VALID,17.2795,VALID,140,VALID,0.0768821,
2009-07-03, 02:21:00,VALID,917.092,VALID,0,VALID,97.9352,VALID,0,VALID,17.2895,VALID,140,VALID,0.093006,
2009-07-03, 02:22:00,VALID,917.077,VALID,0,VALID,97.8805,VALID,0,VALID,17.2758,VALID,141,VALID,0.379724,
2009-07-03, 02:23:00,VALID,917.058,VALID,0,VALID,97.836,VALID,0.0169808,VALID,17.2629,VALID,150,VALID,0.0145349,
2009-07-03, 02:24:00,VALID,917.036,VALID,0,VALID,97.9568,VALID,0.0169808,VALID,17.2923,VALID,143,VALID,0,
2009-07-03, 02:25:00,VALID,917.01,VALID,0,VALID,97.8779,VALID,0.0169808,VALID,17.3145,VALID,143,VALID,0,
2009-07-03, 02:26:00,VALID,917.002,VALID,0,VALID,97.8169,VALID,0.0339617,VALID,17.3046,VALID,155,VALID,0.105569,
2009-07-03, 02:27:00,VALID,916.998,VALID,0,VALID,97.8423,VALID,-0.101885,VALID,17.3228,VALID,146,VALID,0,
2009-07-03, 02:28:00,VALID,917.002,VALID,0,VALID,97.7877,VALID,-0.101885,VALID,17.3063,VALID,147,VALID,0,
2009-07-03, 02:29:00,VALID,916.989,VALID,0,VALID,97.7877,VALID,-0.0679233,VALID,17.3063,VALID,147,VALID,0,
2009-07-03, 02:30:00,VALID,916.998,VALID,0,VALID,97.7737,VALID,-0.101885,VALID,17.2899,VALID,150,VALID,0,
2009-07-03, 02:31:00,VALID,916.999,VALID,0,VALID,97.7673,VALID,-0.0849042,VALID,17.264,VALID,141,VALID,0,
2009-07-03, 02:32:00,VALID,916.98,VALID,0,VALID,97.7991,VALID,-0.0849042,VALID,17.2646,VALID,147,VALID,0.882068,
2009-07-03, 02:33:00,VALID,916.983,VALID,0,VALID,97.8169,VALID,-0.101885,VALID,17.2612,VALID,133,VALID,0.30069,
2009-07-03, 02:34:00,VALID,916.97,VALID,0,VALID,97.6936,VALID,-0.0679233,VALID,17.2188,VALID,134,VALID,0.0575457,
2009-07-03, 02:35:00,VALID,916.957,VALID,0,VALID,97.7584,VALID,-0.101885,VALID,17.1738,VALID,136,VALID,0.405488,
2009-07-03, 02:36:00,VALID,916.934,VALID,0,VALID,97.8512,VALID,-0.0849042,VALID,17.1278,VALID,127,VALID,0,
2009-07-03, 02:37:00,VALID,916.916,VALID,0,VALID,97.85,VALID,-0.0679233,VALID,17.0757,VALID,122,VALID,0,
2009-07-03, 02:38:00,VALID,916.913,VALID,0,VALID,97.9631,VALID,-0.101885,VALID,17.0377,VALID,126,VALID,0.106771,
2009-07-03, 02:39:00,VALID,916.913,VALID,0,VALID,98.0839,VALID,-0.101885,VALID,16.9949,VALID,133,VALID,0.665879,
2009-07-03, 02:40:00,VALID,916.907,VALID,0,VALID,98.2098,VALID,-0.118866,VALID,16.9825,VALID,134,VALID,0.467297,
2009-07-03, 02:41:00,VALID,916.908,VALID,0,VALID,98.2747,VALID,-0.0849042,VALID,16.9698,VALID,135,VALID,0.0012718,
2009-07-03, 02:42:00,VALID,916.9,VALID,0,VALID,98.3205,VALID,-0.101885,VALID,16.9501,VALID,136,VALID,0,
2009-07-03, 02:43:00,VALID,916.915,VALID,0,VALID,98.2887,VALID,-0.101885,VALID,16.9369,VALID,134,VALID,0,
2009-07-03, 02:44:00,VALID,916.918,VALID,0,VALID,98.3192,VALID,-0.0849042,VALID,16.9242,VALID,149,VALID,0,
2009-07-03, 02:45:00,VALID,916.924,VALID,0,VALID,98.3141,VALID,-0.101885,VALID,16.895,VALID,145,VALID,0,
2009-07-03, 02:46:00,VALID,916.925,VALID,0,VALID,98.5125,VALID,-0.101885,VALID,16.8985,VALID,149,VALID,0,
2009-07-03, 02:47:00,VALID,916.909,VALID,0,VALID,98.6218,VALID,-0.118866,VALID,16.908,VALID,151,VALID,0,
2009-07-03, 02:48:00,VALID,916.891,VALID,0,VALID,98.7007,VALID,-0.101885,VALID,16.9112,VALID,146,VALID,0,
2009-07-03, 02:49:00,VALID,916.875,VALID,0,VALID,98.7706,VALID,-0.0849042,VALID,16.8814,VALID,141,VALID,0,
2009-07-03, 02:50:00,VALID,916.879,VALID,0,VALID,98.9881,VALID,-0.0679233,VALID,16.8812,VALID,143,VALID,0,
2009-07-03, 02:51:00,VALID,916.883,VALID,0,VALID,99.1038,VALID,-0.118866,VALID,16.9367,VALID,139,VALID,0,
2009-07-03, 02:52:00,VALID,916.879,VALID,0,VALID,98.9448,VALID,-0.101885,VALID,16.9951,VALID,136,VALID,0,
2009-07-03, 02:53:00,VALID,916.874,VALID,0,VALID,98.7693,VALID,-0.0849042,VALID,17.024,VALID,137,VALID,0,
2009-07-03, 02:54:00,VALID,916.859,VALID,0,VALID,98.6549,VALID,-0.0679233,VALID,17.0731,VALID,142,VALID,0,
2009-07-03, 02:55:00,VALID,916.84,VALID,0,VALID,98.4031,VALID,-0.0849042,VALID,17.109,VALID,143,VALID,0,
2009-07-03, 02:56:00,VALID,916.822,VALID,0,VALID,98.2098,VALID,-0.0849042,VALID,17.1414,VALID,147,VALID,0,
2009-07-03, 02:57:00,VALID,916.813,VALID,0,VALID,97.9453,VALID,0.0169808,VALID,17.1656,VALID,140,VALID,0,
2009-07-03, 02:58:00,VALID,916.812,VALID,0,VALID,97.7304,VALID,0,VALID,17.1853,VALID,143,VALID,0,
2009-07-03, 02:59:00,VALID,916.831,VALID,0,VALID,97.6554,VALID,0.0509425,VALID,17.1781,VALID,148,VALID,0,
2009-07-03, 03:00:00,VALID,916.851,VALID,0,VALID,97.6427,VALID,0.0339617,VALID,17.2237,VALID,153,VALID,0,
2009-07-03, 03:01:00,VALID,916.854,VALID,0,VALID,97.3439,VALID,0,VALID,17.3085,VALID,154,VALID,0,
2009-07-03, 03:02:00,VALID,916.847,VALID,0,VALID,97.0743,VALID,0,VALID,17.3478,VALID,157,VALID,0.34013,
2009-07-03, 03:03:00,VALID,916.851,VALID,0,VALID,96.9548,VALID,0.0509425,VALID,17.3437,VALID,154,VALID,0.467262,
2009-07-03, 03:04:00,VALID,916.857,VALID,0,VALID,96.8937,VALID,0.0339617,VALID,17.3275,VALID,148,VALID,0.518164,
2009-07-03, 03:05:00,VALID,916.854,VALID,0,VALID,96.8836,VALID,0.0169808,VALID,17.299,VALID,149,VALID,0.000558036,
2009-07-03, 03:06:00,VALID,916.834,VALID,0,VALID,96.9675,VALID,0.0169808,VALID,17.2467,VALID,144,VALID,0.0515253,
2009-07-03, 03:07:00,VALID,916.803,VALID,0,VALID,97.1582,VALID,0.0169808,VALID,17.2499,VALID,144,VALID,0.0921148,
2009-07-03, 03:08:00,VALID,916.796,VALID,0,VALID,97.2371,VALID,0.0169808,VALID,17.2367,VALID,144,VALID,0.175391,
2009-07-03, 03:09:00,VALID,916.791,VALID,0,VALID,97.2828,VALID,0.0169808,VALID,17.2272,VALID,141,VALID,0.501635,
2009-07-03, 03:10:00,VALID,916.771,VALID,0,VALID,97.2803,VALID,0,VALID,17.2106,VALID,140,VALID,0.463481,
2009-07-03, 03:11:00,VALID,916.77,VALID,0,VALID,97.2205,VALID,0,VALID,17.2015,VALID,147,VALID,0.405692,
2009-07-03, 03:12:00,VALID,916.786,VALID,0,VALID,97.2816,VALID,-0.0849042,VALID,17.1669,VALID,148,VALID,0,
2009-07-03, 03:13:00,VALID,916.797,VALID,0,VALID,97.4443,VALID,-0.0679233,VALID,17.1505,VALID,147,VALID,0,
2009-07-03, 03:14:00,VALID,916.815,VALID,0,VALID,97.4952,VALID,-0.0679233,VALID,17.1375,VALID,143,VALID,0,
2009-07-03, 03:15:00,VALID,916.808,VALID,0,VALID,97.4825,VALID,-0.0509425,VALID,17.1215,VALID,143,VALID,0,
2009-07-03, 03:16:00,VALID,916.802,VALID,0,VALID,97.4812,VALID,-0.0509425,VALID,17.0958,VALID,139,VALID,0,
2009-07-03, 03:17:00,VALID,916.788,VALID,0,VALID,97.4494,VALID,-0.0849042,VALID,17.0601,VALID,139,VALID,0,
2009-07-03, 03:18:00,VALID,916.792,VALID,0,VALID,97.6427,VALID,-0.101885,VALID,17.0344,VALID,142,VALID,0,
2009-07-03, 03:19:00,VALID,916.801,VALID,0,VALID,97.8131,VALID,-0.101885,VALID,17.0342,VALID,138,VALID,0,
2009-07-03, 03:20:00,VALID,916.812,VALID,0,VALID,97.8017,VALID,-0.0849042,VALID,17.0539,VALID,132,VALID,0,
2009-07-03, 03:21:00,VALID,916.816,VALID,0,VALID,97.8118,VALID,-0.0679233,VALID,17.024,VALID,127,VALID,0,
2009-07-03, 03:22:00,VALID,916.825,VALID,0,VALID,97.8945,VALID,-0.0679233,VALID,17.0176,VALID,124,VALID,0,
2009-07-03, 03:23:00,VALID,916.832,VALID,0,VALID,98.0115,VALID,-0.0849042,VALID,17.0374,VALID,125,VALID,0,
2009-07-03, 03:24:00,VALID,916.843,VALID,0,VALID,97.8563,VALID,-0.101885,VALID,17.0474,VALID,124,VALID,0,
2009-07-03, 03:25:00,VALID,916.835,VALID,0,VALID,97.8703,VALID,-0.0679233,VALID,17.0634,VALID,129,VALID,0,
2009-07-03, 03:26:00,VALID,916.834,VALID,0,VALID,97.7444,VALID,-0.0849042,VALID,17.0666,VALID,137,VALID,0,
2009-07-03, 03:27:00,VALID,916.819,VALID,0,VALID,97.6948,VALID,-0.0509425,VALID,17.0534,VALID,138,VALID,0,
2009-07-03, 03:28:00,VALID,916.795,VALID,0,VALID,97.7711,VALID,-0.0509425,VALID,17.0338,VALID,140,VALID,0,
2009-07-03, 03:29:00,VALID,916.796,VALID,0,VALID,97.9034,VALID,-0.0849042,VALID,17.0243,VALID,141,VALID,0.235102,
2009-07-03, 03:30:00,VALID,916.786,VALID,0,VALID,97.9809,VALID,-0.0849042,VALID,17.0147,VALID,145,VALID,0.69308,
2009-07-03, 03:31:00,VALID,916.79,VALID,0,VALID,98.2149,VALID,-0.0849042,VALID,17.015,VALID,152,VALID,0.161111,
2009-07-03, 03:32:00,VALID,916.787,VALID,0,VALID,98.2315,VALID,-0.101885,VALID,17.0279,VALID,155,VALID,0.233467,
2009-07-03, 03:33:00,VALID,916.804,VALID,0,VALID,98.248,VALID,-0.0679233,VALID,17.0344,VALID,154,VALID,0.093192,
2009-07-03, 03:34:00,VALID,916.799,VALID,0,VALID,98.2569,VALID,-0.0679233,VALID,17.0346,VALID,148,VALID,0.300145,
2009-07-03, 03:35:00,VALID,916.79,VALID,0,VALID,98.2454,VALID,-0.0679233,VALID,17.0439,VALID,141,VALID,0,
2009-07-03, 03:36:00,VALID,916.772,VALID,0,VALID,98.1577,VALID,-0.0679233,VALID,17.0567,VALID,138,VALID,0,
2009-07-03, 03:37:00,VALID,916.746,VALID,0,VALID,98.1157,VALID,-0.0679233,VALID,17.083,VALID,135,VALID,0,